This is the latest recevied weather packets stored in our database for station/object N7CW. If no packets are shown the sender has not sent any weather packets the latest 1 day(s).
| Time | Temp. | Humidity | Pressure | Rain* | Wind** | Luminosity | Snow |
|---|---|---|---|---|---|---|---|
| 1778039765 | 8.33° C | 48% | 1014.9 hPa | 0 mm | - | 0 W/m² | - |
| 1778039159 | 8.33° C | 48% | 1014.9 hPa | 0 mm | - | 0 W/m² | - |
| 1778038856 | 8.33° C | 48% | 1014.8 hPa | 0 mm | - | 0 W/m² | - |
| 1778038553 | 8.33° C | 48% | 1014.7 hPa | 0 mm | - | 0 W/m² | - |
| 1778038250 | 8.89° C | 47% | 1014.6 hPa | 0 mm | - | 0 W/m² | - |
| 1778037947 | 8.89° C | 47% | 1014.4 hPa | 0 mm | - | 0 W/m² | - |
| 1778037644 | 8.89° C | 46% | 1014.4 hPa | 0 mm | - | 0 W/m² | - |
| 1778037342 | 8.89° C | 47% | 1014.2 hPa | 0 mm | - | 0 W/m² | - |
| 1778037038 | 8.89° C | 47% | 1014 hPa | 0 mm | - | 0 W/m² | - |
| 1778035826 | 9.44° C | 46% | 1014 hPa | 0 mm | - | 0 W/m² | - |
| 1778035523 | 9.44° C | 46% | 1013.9 hPa | 0 mm | - | 0 W/m² | - |
| 1778035220 | 9.44° C | 46% | 1013.8 hPa | 0 mm | - | 0 W/m² | - |
| 1778034916 | 9.44° C | 46% | 1013.5 hPa | 0 mm | - | 0 W/m² | - |
| 1778034614 | 10° C | 45% | 1013.8 hPa | 0 mm | - | 1 W/m² | - |
| 1778034311 | 10° C | 45% | 1013.4 hPa | 0 mm | - | 1 W/m² | - |
| 1778033706 | 10° C | 44% | 1013.2 hPa | 0 mm | - | 5 W/m² | - |
| 1778033403 | 10° C | 44% | 1013.4 hPa | 0 mm | - | 7 W/m² | - |
| 1778032797 | 10.56° C | 43% | 1013.1 hPa | 0 mm | - | 13 W/m² | - |
| 1778032494 | 10.56° C | 43% | 1012.9 hPa | 0 mm | - | 16 W/m² | - |
| 1778031888 | 11.11° C | 42% | 1013.1 hPa | 0 mm | - | 25 W/m² | - |
| 1778031283 | 11.11° C | 41% | 1012.9 hPa | 0 mm | - | 36 W/m² | - |
| 1778030979 | 11.11° C | 42% | 1012.8 hPa | 0 mm | - | 42 W/m² | - |
| 1778030070 | 11.11° C | 42% | 1012.6 hPa | 0 mm | - | 70 W/m² | - |
| 1778029767 | 11.11° C | 42% | 1012.6 hPa | 0 mm | - | 39 W/m² | - |
| 1778029466 | 11.67° C | 42% | 1012.8 hPa | 0 mm | - | 79 W/m² | - |
* Rain latest hour (hover to see other rain measurements)
** Current wind speed in m/s (hover to see current wind gust speed)